TimeEST,TemperatureF,Dew PointF,Humidity,Sea Level PressureIn,VisibilityMPH,Wind Direction,Wind SpeedMPH,Gust SpeedMPH,PrecipitationIn,Events,Conditions,WindDirDegrees,DateUTC
12:52 AM,34.0,7.0,32,30.04,10.0,SW,9.2,-,N/A,,Overcast,220,2014-01-31 05:52:00
1:52 AM,34.0,7.0,32,30.03,10.0,SSW,8.1,-,N/A,,Overcast,210,2014-01-31 06:52:00
2:52 AM,34.0,8.1,34,30.04,10.0,SSW,9.2,-,N/A,,Overcast,210,2014-01-31 07:52:00
3:52 AM,34.0,8.1,34,30.04,10.0,SSW,9.2,-,N/A,,Overcast,200,2014-01-31 08:52:00
4:52 AM,34.0,9.0,35,30.05,10.0,SSW,6.9,-,N/A,,Overcast,200,2014-01-31 09:52:00
5:52 AM,34.0,10.0,37,30.08,10.0,SSW,8.1,-,N/A,,Overcast,210,2014-01-31 10:52:00
6:52 AM,33.1,10.0,38,30.08,10.0,SSW,6.9,-,N/A,,Overcast,210,2014-01-31 11:52:00
7:52 AM,34.0,9.0,35,30.10,10.0,SW,5.8,-,N/A,,Overcast,220,2014-01-31 12:52:00
8:52 AM,34.0,12.0,40,30.12,10.0,South,6.9,-,N/A,,Mostly Cloudy,190,2014-01-31 13:52:00
9:52 AM,35.1,10.0,35,30.14,10.0,SSW,8.1,-,N/A,,Overcast,210,2014-01-31 14:52:00
10:52 AM,36.0,10.9,36,30.14,10.0,SSW,6.9,-,N/A,,Overcast,210,2014-01-31 15:52:00
11:52 AM,37.0,10.0,33,30.15,10.0,SSW,5.8,-,N/A,,Overcast,200,2014-01-31 16:52:00
12:52 PM,37.9,12.0,35,30.12,10.0,South,6.9,-,N/A,,Overcast,170,2014-01-31 17:52:00
1:52 PM,39.9,14.0,35,30.11,10.0,South,8.1,-,N/A,,Overcast,170,2014-01-31 18:52:00
2:52 PM,39.9,16.0,38,30.11,10.0,South,5.8,-,N/A,,Overcast,180,2014-01-31 19:52:00
3:52 PM,42.1,16.0,35,30.11,10.0,NW,3.5,-,N/A,,Overcast,320,2014-01-31 20:52:00
4:52 PM,41.0,15.1,35,30.11,10.0,Calm,Calm,-,N/A,,Overcast,0,2014-01-31 21:52:00
5:52 PM,39.0,19.0,45,30.11,10.0,East,3.5,-,N/A,,Overcast,100,2014-01-31 22:52:00
6:52 PM,37.0,19.0,48,30.12,10.0,SSE,3.5,-,N/A,,Overcast,160,2014-01-31 23:52:00
7:52 PM,37.0,21.9,54,30.12,10.0,South,4.6,-,N/A,,Overcast,170,2014-02-01 00:52:00
8:52 PM,37.0,19.9,50,30.11,10.0,SE,3.5,-,N/A,,Overcast,130,2014-02-01 01:52:00
9:52 PM,37.0,19.9,50,30.10,10.0,ESE,4.6,-,N/A,,Overcast,120,2014-02-01 02:52:00
10:31 PM,37.4,21.2,52,30.08,10.0,SE,4.6,-,N/A,,Overcast,130,2014-02-01 03:31:00
10:52 PM,37.0,19.9,50,30.09,10.0,SE,5.8,-,N/A,,Overcast,130,2014-02-01 03:52:00
11:52 PM,37.0,21.0,52,30.09,10.0,Calm,Calm,-,N/A,,Overcast,0,2014-02-01 04:52:00